Date String (YYYY-MM-DD hh:mm:ss) UTC,Instrument flags,Ambient pressure (hPa),Sample flow (lpm),Bypass flow (lpm),Sample temperature (°C),Ambient temperature (°C),ASC tube jacket temperature (°C),LED temperature (°C),Box temperature (°C),Sample RH (%),Span deviation,Mass concentration (μg/m³),Mass concentration (μg/m³),Mass concentration (μg/m³)
DateTimeUTC,F1_M11,P_M11,Q1_M11,Q2_M11,T1_M11,T2_M11,T3_M11,T4_M11,T5_M11,U1_M11,ZSPAN_M11,X0_M11,X2_M11,X1_M11
2022-06-16 19:00:00,,0829.6,4.99,0.00,28.9,27.8,00.0,37.6,31.0,21.2,0000.0,0030.35,0007.07,0004.24
2022-06-16 19:01:00,,0829.7,5.00,0.00,29.0,28.0,00.0,37.7,31.0,20.5,0000.0,0031.04,0007.10,0004.25
2022-06-16 19:02:00,,0829.8,5.01,0.00,29.0,28.1,00.0,37.7,31.1,20.5,0000.0,0030.45,0007.15,0004.25
2022-06-16 19:03:00,,0829.6,5.00,0.00,29.0,27.9,00.0,37.7,31.0,20.4,0000.0,0029.01,0007.21,0004.26
2022-06-16 19:04:00,,0829.5,4.99,0.00,29.0,27.2,00.0,37.6,30.8,20.1,0000.0,0029.28,0007.23,0004.27
2022-06-16 19:05:00,,0829.6,4.99,0.00,28.9,26.9,00.0,37.6,30.7,19.9,0000.0,0030.79,0007.23,0004.27
2022-06-16 19:06:00,,0829.6,5.01,0.00,28.9,26.9,00.0,37.6,30.7,19.9,0000.0,0031.30,0007.27,0004.29
2022-06-16 19:07:00,,0829.5,5.00,0.00,28.9,27.0,00.0,37.6,30.7,20.1,0000.0,0033.61,0007.32,0004.31
2022-06-16 19:08:00,,0829.5,5.00,0.00,28.8,27.2,00.0,37.6,30.8,20.4,0000.0,0034.43,0007.32,0004.30
2022-06-16 19:09:00,,0829.6,5.00,0.00,28.9,27.3,00.0,37.6,30.8,21.0,0000.0,0034.14,0007.34,0004.29
2022-06-16 19:10:00,,0829.5,4.99,0.00,28.9,27.5,00.0,37.6,30.9,21.0,0000.0,0032.77,0007.28,0004.29
2022-06-16 19:11:00,,0829.5,5.01,0.00,28.9,27.7,00.0,37.6,30.9,21.2,0000.0,0034.13,0007.30,0004.28
2022-06-16 19:12:00,,0829.5,5.01,0.00,28.9,27.9,00.0,37.7,31.0,20.8,0000.0,0035.88,0007.30,0004.27
2022-06-16 19:13:00,,0829.5,5.00,0.00,29.0,28.0,00.0,37.7,31.1,20.7,0000.0,0035.20,0007.29,0004.29
2022-06-16 19:14:00,,0829.5,5.00,0.00,29.0,28.1,00.0,37.7,31.1,20.9,0000.0,0035.59,0007.29,0004.29
2022-06-16 19:15:00,,0829.5,5.00,0.00,29.0,27.7,00.0,37.7,31.0,20.0,0000.0,0034.68,0007.35,0004.28
2022-06-16 19:16:00,,0829.6,5.00,0.00,29.0,27.0,00.0,37.6,30.8,19.9,0000.0,0033.57,0007.39,0004.29
2022-06-16 19:17:00,,0829.6,5.00,0.00,28.9,26.8,00.0,37.6,30.7,20.4,0000.0,0034.80,0007.47,0004.28
2022-06-16 19:18:00,,0829.6,4.99,0.00,28.9,26.9,00.0,37.6,30.7,20.9,0000.0,0033.41,0007.48,0004.27
2022-06-16 19:19:00,,0829.5,5.01,0.00,28.9,27.0,00.0,37.6,30.7,21.6,0000.0,0032.57,0007.47,0004.26
2022-06-16 19:20:00,,0829.5,4.99,0.00,28.9,27.2,00.0,37.6,30.8,21.4,0000.0,0032.36,0007.40,0004.26
2022-06-16 19:21:00,,0829.5,4.99,0.00,28.9,27.4,00.0,37.6,30.8,20.7,0000.0,0033.27,0007.45,0004.26
2022-06-16 19:22:00,,0829.5,5.00,0.00,28.9,27.6,00.0,37.6,30.9,20.6,0000.0,0033.26,0007.50,0004.27
2022-06-16 19:23:00,,0829.5,5.01,0.00,28.9,27.8,00.0,37.7,31.0,21.3,0000.0,0031.44,0007.52,0004.27
2022-06-16 19:24:00,,0829.5,5.00,0.00,29.0,27.9,00.0,37.7,31.0,20.9,0000.0,0031.41,0007.50,0004.26
2022-06-16 19:25:00,,0829.5,4.99,0.00,29.0,28.1,00.0,37.7,31.1,20.4,0000.0,0031.39,0007.48,0004.26
2022-06-16 19:26:00,,0829.5,5.00,0.00,29.0,27.9,00.0,37.7,31.0,20.5,0000.0,0031.60,0007.47,0004.26
2022-06-16 19:27:00,,0829.5,5.02,0.00,29.0,27.1,00.0,37.7,30.8,20.4,0000.0,0030.25,0007.43,0004.25
2022-06-16 19:28:00,,0829.5,5.00,0.00,28.9,26.8,00.0,37.6,30.7,21.0,0001.3,0030.38,0007.45,0004.25
2022-06-16 19:29:00,,0829.5,5.00,0.00,28.9,26.8,00.0,37.6,30.7,21.7,0002.3,0031.51,0007.42,0004.24
2022-06-16 19:30:00,,0829.5,5.01,0.00,28.8,26.9,00.0,37.6,30.7,21.0,0002.0,0033.61,0007.46,0004.23
2022-06-16 19:31:00,,0829.5,5.01,0.00,28.8,27.1,00.0,37.6,30.8,20.7,0001.8,0034.31,0007.44,0004.22
2022-06-16 19:32:00,,0829.5,4.98,0.00,28.9,27.3,00.0,37.6,30.8,20.6,0003.0,0033.38,0007.39,0004.21
2022-06-16 19:33:00,,0829.5,5.01,0.00,28.9,27.5,00.0,37.6,30.9,20.2,0002.6,0032.21,0007.39,0004.19
2022-06-16 19:34:00,,0829.5,5.01,0.00,28.9,27.7,00.0,37.7,30.9,20.0,0002.9,0031.34,0007.36,0004.18
2022-06-16 19:35:00,,0829.5,5.01,0.00,29.0,27.9,00.0,37.7,31.0,20.1,0002.2,0030.97,0007.34,0004.16
2022-06-16 19:36:00,,0829.5,5.00,0.00,29.0,28.1,00.0,37.7,31.1,20.3,0002.3,0031.60,0007.39,0004.16
2022-06-16 19:37:00,,0829.5,4.99,0.00,29.0,28.2,00.0,37.7,31.1,20.2,0001.7,0032.55,0007.38,0004.15
2022-06-16 19:38:00,,0829.5,5.00,0.00,29.0,27.7,00.0,37.7,31.0,20.1,0000.1,0034.46,0007.41,0004.15
2022-06-16 19:39:00,,0829.5,5.01,0.00,29.0,26.9,00.0,37.6,30.8,20.1,0000.0,0035.63,0007.39,0004.14
2022-06-16 19:40:00,,0829.4,5.01,0.00,28.9,26.7,00.0,37.6,30.7,20.0,0000.0,0034.48,0007.41,0004.14
2022-06-16 19:41:00,,0829.4,5.01,0.00,28.9,26.8,00.0,37.6,30.7,20.6,0000.0,0031.75,0007.38,0004.15
2022-06-16 19:42:00,,0829.4,4.99,0.00,28.9,27.0,00.0,37.6,30.7,20.8,0000.0,0032.23,0007.35,0004.15
2022-06-16 19:43:00,,0829.4,5.01,0.00,28.9,27.2,00.0,37.6,30.8,20.9,0000.0,0033.16,0007.34,0004.15
2022-06-16 19:44:00,,0829.4,4.99,0.00,28.9,27.4,00.0,37.6,30.8,20.5,0000.0,0033.81,0007.33,0004.16
2022-06-16 19:45:00,,0829.5,5.00,0.00,28.9,27.6,00.0,37.6,30.9,20.3,0000.0,0035.74,0007.41,0004.15
2022-06-16 19:46:00,,0829.5,5.00,0.00,28.9,27.8,00.0,37.7,31.0,20.2,0000.0,0036.31,0007.47,0004.15
2022-06-16 19:47:00,,0829.4,4.97,0.00,29.0,27.9,00.0,37.7,31.0,20.0,0000.0,0033.88,0007.41,0004.14
2022-06-16 19:48:00,,0829.3,5.00,0.00,29.0,28.1,00.0,37.7,31.1,20.4,0000.0,0033.30,0007.44,0004.14
2022-06-16 19:49:00,,0829.4,5.00,0.00,29.1,28.1,00.0,37.7,31.1,20.6,0000.0,0033.08,0007.44,0004.14
2022-06-16 19:50:00,,0829.3,5.00,0.00,29.0,27.4,00.0,37.7,30.9,20.9,0000.0,0031.01,0007.41,0004.14
2022-06-16 19:51:00,,0829.3,5.01,0.00,28.9,26.9,00.0,37.6,30.7,21.6,0000.0,0029.02,0007.34,0004.14
2022-06-16 19:52:00,,0829.2,5.01,0.00,28.9,26.8,00.0,37.6,30.7,21.2,0000.0,0028.19,0007.22,0004.15
2022-06-16 19:53:00,,0829.4,4.99,0.00,28.9,26.9,00.0,37.6,30.7,20.8,0000.0,0027.86,0007.30,0004.15
2022-06-16 19:54:00,,0829.2,4.98,0.00,28.9,27.1,00.0,37.6,30.8,20.0,0000.0,0028.66,0007.30,0004.17
2022-06-16 19:55:00,,0829.2,4.99,0.00,28.9,27.3,00.0,37.6,30.8,20.1,0000.0,0028.47,0007.28,0004.18
2022-06-16 19:56:00,,0829.3,5.00,0.00,28.9,27.5,00.0,37.6,30.9,20.2,0000.0,0029.54,0007.24,0004.19
2022-06-16 19:57:00,,0829.3,5.01,0.00,28.9,27.7,00.0,37.7,31.0,20.5,0000.0,0029.85,0007.15,0004.20
2022-06-16 19:58:00,,0829.3,5.00,0.00,29.0,27.9,00.0,37.7,31.0,20.9,0000.0,0031.37,0007.16,0004.18
2022-06-16 19:59:00,,0829.2,5.00,0.00,29.0,28.0,00.0,37.7,31.1,19.9,0000.0,0032.84,0007.18,0004.19
